QPF
0.09 0.10 0.11 0.11 0.09 0.06 0.07 0.08 0.08 0.06 0.04 0.04 0.02 0.02 0.05 0.07 0.02 0.01 0.01 0.00 0.00 0.01 0.00 0.00 0.00 0.00 0.02 0.02 0.02 0.01 0.01 0.01 0.01 0.01 0.01 0.01 0.01 0.01 0.00 0.00 0.00 0.00 0.00
0.09 0.09 0.09 0.08 0.06 0.06 0.07 0.07 0.08 0.07 0.06 0.06 0.04 0.02 0.02 0.02 0.02 0.02 0.03 0.02 0.00 0.00 0.00 0.00 0.00 0.00 0.01 0.01 0.01 0.02 0.01 0.01 0.01 0.00 0.00 0.01 0.01 0.01 0.01 0.01 0.01 0.00 0.00
0.06 0.06 0.07 0.05 0.06 0.05 0.05 0.06 0.07 0.06 0.06 0.06 0.06 0.04 0.03 0.02 0.02 0.02 0.02 0.04 0.02 0.00 0.01 0.01 0.01 0.01 0.01 0.01 0.01 0.01 0.01 0.01 0.02 0.01 0.01 0.01 0.01 0.01 0.01 0.01 0.01 0.00 0.00
0.03 0.05 0.05 0.04 0.04 0.05 0.05 0.05 0.05 0.06 0.07 0.06 0.06 0.05 0.04 0.02 0.01 0.01 0.01 0.03 0.05 0.04 0.02 0.01 0.01 0.01 0.02 0.02 0.02 0.03 0.02 0.01 0.01 0.01 0.01 0.00 0.00 0.01 0.00 0.00 0.00 0.01 0.00
0.01 0.03 0.05 0.06 0.03 0.04 0.06 0.05 0.07 0.07 0.07 0.07 0.05 0.05 0.03 0.03 0.02 0.01 0.01 0.01 0.03 0.04 0.03 0.02 0.01 0.02 0.03 0.04 0.03 0.03 0.03 0.02 0.01 0.01 0.01 0.01 0.01 0.01 0.01 0.01 0.00 0.00 0.00
0.02 0.03 0.04 0.03 0.04 0.05 0.06 0.07 0.10 0.08 0.08 0.07 0.04 0.07 0.04 0.02 0.03 0.02 0.01 0.01 0.01 0.02 0.03 0.05 0.06 0.04 0.03 0.03 0.04 0.04 0.03 0.03 0.03 0.02 0.02 0.02 0.02 0.02 0.01 0.01 0.01 0.01 0.01
0.03 0.05 0.06 0.06 0.04 0.05 0.06 0.06 0.08 0.10 0.09 0.06 0.09 0.12 0.09 0.03 0.03 0.02 0.01 0.01 0.02 0.03 0.03 0.07 0.10 0.11 0.07 0.04 0.03 0.03 0.03 0.04 0.05 0.03 0.02 0.03 0.03 0.02 0.02 0.02 0.01 0.01 0.01
0.04 0.05 0.06 0.05 0.06 0.07 0.06 0.07 0.08 0.09 0.08 0.07 0.08 0.13 0.14 0.14 0.09 0.03 0.02 0.01 0.02 0.02 0.02 0.03 0.05 0.08 0.08 0.11 0.04 0.02 0.02 0.03 0.05 0.05 0.04 0.03 0.03 0.03 0.02 0.02 0.02 0.02 0.02
0.04 0.05 0.06 0.06 0.06 0.05 0.07 0.07 0.06 0.09 0.10 0.08 0.05 0.07 0.12 0.16 0.16 0.07 0.03 0.01 0.02 0.02 0.01 0.02 0.03 0.06 0.06 0.10 0.08 0.04 0.03 0.02 0.03 0.04 0.06 0.05 0.03 0.02 0.02 0.02 0.03 0.03 0.02
0.07 0.06 0.06 0.06 0.07 0.06 0.09 0.05 0.06 0.07 0.10 0.09 0.08 0.04 0.05 0.10 0.15 0.15 0.09 0.04 0.04 0.04 0.03 0.05 0.05 0.07 0.08 0.09 0.08 0.04 0.02 0.02 0.01 0.02 0.04 0.05 0.04 0.03 0.02 0.03 0.04 0.05 0.04
0.09 0.06 0.07 0.09 0.10 0.08 0.09 0.08 0.11 0.08 0.07 0.07 0.09 0.07 0.07 0.08 0.07 0.10 0.11 0.09 0.08 0.07 0.06 0.06 0.06 0.06 0.06 0.07 0.08 0.04 0.03 0.02 0.01 0.01 0.02 0.04 0.05 0.04 0.04 0.04 0.05 0.04 0.04
0.11 0.08 0.08 0.11 0.09 0.11 0.12 0.11 0.11 0.10 0.10 0.09 0.08 0.07 0.08 0.08 0.07 0.09 0.09 0.09 0.09 0.10 0.08 0.06 0.06 0.06 0.05 0.05 0.04 0.03 0.03 0.02 0.02 0.01 0.02 0.03 0.03 0.04 0.04 0.04 0.04 0.04 0.05
0.12 0.12 0.11 0.12 0.10 0.12 0.10 0.10 0.11 0.10 0.10 0.10 0.08 0.08 0.07 0.04 0.05 0.08 0.10 0.11 0.12 0.11 0.10 0.07 0.06 0.06 0.05 0.05 0.03 0.02 0.01 0.01 0.01 0.01 0.02 0.02 0.03 0.03 0.03 0.04 0.04 0.05 0.06
0.11 0.10 0.09 0.10 0.10 0.09 0.09 0.13 0.11 0.11 0.11 0.10 0.09 0.11 0.10 0.06 0.05 0.06 0.09 0.13 0.15 0.14 0.13 0.11 0.09 0.08 0.08 0.07 0.04 0.03 0.01 0.01 0.01 0.01 0.01 0.02 0.02 0.02 0.02 0.02 0.02 0.03 0.02
0.11 0.10 0.08 0.11 0.12 0.11 0.11 0.13 0.13 0.12 0.14 0.11 0.11 0.12 0.10 0.07 0.06 0.06 0.08 0.12 0.16 0.16 0.14 0.12 0.09 0.10 0.10 0.09 0.06 0.04 0.03 0.04 0.03 0.02 0.02 0.03 0.03 0.02 0.02 0.02 0.02 0.02 0.02
0.12 0.11 0.11 0.12 0.15 0.16 0.15 0.16 0.15 0.14 0.14 0.14 0.12 0.12 0.12 0.09 0.09 0.09 0.09 0.11 0.13 0.15 0.13 0.08 0.07 0.08 0.09 0.08 0.08 0.07 0.06 0.08 0.07 0.05 0.04 0.04 0.04 0.03 0.03 0.03 0.02 0.02 0.02
0.11 0.10 0.10 0.12 0.13 0.14 0.14 0.16 0.14 0.14 0.15 0.15 0.12 0.11 0.11 0.12 0.11 0.10 0.11 0.11 0.12 0.14 0.14 0.10 0.12 0.12 0.11 0.11 0.11 0.09 0.06 0.06 0.07 0.08 0.06 0.05 0.05 0.03 0.03 0.03 0.04 0.04 0.04
0.09 0.09 0.08 0.08 0.08 0.09 0.11 0.14 0.16 0.18 0.18 0.16 0.15 0.16 0.15 0.13 0.14 0.13 0.13 0.11 0.11 0.13 0.14 0.12 0.12 0.12 0.11 0.10 0.10 0.10 0.08 0.06 0.07 0.09 0.09 0.08 0.08 0.08 0.08 0.07 0.06 0.06 0.04
0.11 0.09 0.08 0.09 0.11 0.12 0.14 0.14 0.14 0.14 0.16 0.16 0.16 0.15 0.14 0.12 0.12 0.11 0.10 0.10 0.10 0.12 0.16 0.15 0.13 0.13 0.12 0.10 0.10 0.10 0.09 0.09 0.09 0.11 0.10 0.09 0.09 0.09 0.09 0.08 0.06 0.05 0.04
0.11 0.11 0.09 0.09 0.11 0.12 0.11 0.10 0.09 0.10 0.12 0.11 0.10 0.10 0.11 0.10 0.11 0.12 0.11 0.12 0.13 0.15 0.17 0.17 0.14 0.11 0.11 0.11 0.11 0.10 0.11 0.11 0.12 0.13 0.13 0.11 0.10 0.09 0.07 0.06 0.05 0.05 0.05
0.08 0.09 0.09 0.11 0.11 0.09 0.08 0.08 0.08 0.08 0.09 0.09 0.09 0.08 0.07 0.08 0.09 0.09 0.08 0.08 0.09 0.11 0.13 0.13 0.10 0.08 0.09 0.10 0.10 0.10 0.10 0.10 0.11 0.10 0.10 0.10 0.09 0.08 0.08 0.07 0.07 0.07 0.06
0.07 0.07 0.06 0.07 0.09 0.07 0.10 0.09 0.08 0.09 0.09 0.08 0.08 0.08 0.07 0.07 0.06 0.05 0.05 0.05 0.07 0.08 0.09 0.10 0.10 0.09 0.08 0.10 0.13 0.14 0.14 0.13 0.14 0.13 0.12 0.14 0.13 0.12 0.09 0.08 0.08 0.07 0.06
0.05 0.07 0.06 0.06 0.05 0.05 0.07 0.06 0.06 0.07 0.09 0.08 0.07 0.07 0.05 0.04 0.04 0.04 0.04 0.05 0.05 0.05 0.05 0.06 0.08 0.09 0.10 0.12 0.15 0.16 0.16 0.17 0.16 0.14 0.12 0.11 0.10 0.09 0.09 0.08 0.07 0.05 0.05
0.04 0.05 0.06 0.06 0.05 0.04 0.03 0.02 0.03 0.05 0.06 0.05 0.04 0.04 0.04 0.03 0.03 0.03 0.03 0.02 0.02 0.02 0.04 0.05 0.06 0.07 0.08 0.11 0.13 0.13 0.14 0.12 0.10 0.08 0.07 0.07 0.07 0.07 0.06 0.05 0.05 0.04 0.04
0.05 0.05 0.05 0.05 0.05 0.04 0.03 0.02 0.02 0.02 0.03 0.03 0.02 0.02 0.02 0.02 0.02 0.02 0.02 0.02 0.02 0.02 0.03 0.03 0.03 0.03 0.04 0.05 0.06 0.08 0.09 0.09 0.08 0.07 0.06 0.05 0.05 0.05 0.04 0.04 0.03 0.03 0.03
0.05 0.05 0.05 0.04 0.05 0.04 0.02 0.01 0.01 0.01 0.02 0.02 0.02 0.01 0.01 0.01 0.01 0.01 0.01 0.01 0.01 0.02 0.02 0.02 0.02 0.02 0.02 0.03 0.03 0.04 0.04 0.05 0.05 0.05 0.05 0.04 0.04 0.04 0.04 0.03 0.03 0.03 0.03
MSLP
1017.39 1017.54 1017.65 1017.75 1017.87 1018.02 1018.21 1018.40 1018.58 1018.71 1018.77 1018.76 1018.72 1018.67 1018.67 1018.76 1018.98 1019.33 1019.78 1020.28 1020.77 1021.21 1021.56 1021.80 1021.95 1022.02 1022.07 1022.13 1022.22 1022.35 1022.52 1022.71 1022.91 1023.10 1023.28 1023.43 1023.56 1023.68 1023.80 1023.91 1024.02 1024.14 1024.23
1017.43 1017.60 1017.72 1017.82 1017.94 1018.07 1018.24 1018.42 1018.59 1018.73 1018.82 1018.86 1018.85 1018.84 1018.86 1018.95 1019.12 1019.40 1019.75 1020.16 1020.58 1020.97 1021.31 1021.58 1021.77 1021.91 1022.03 1022.14 1022.26 1022.39 1022.55 1022.71 1022.88 1023.04 1023.19 1023.34 1023.48 1023.62 1023.76 1023.90 1024.04 1024.17 1024.29
1017.43 1017.62 1017.76 1017.88 1018.00 1018.13 1018.29 1018.47 1018.65 1018.81 1018.94 1019.02 1019.07 1019.10 1019.13 1019.20 1019.32 1019.52 1019.77 1020.07 1020.39 1020.72 1021.02 1021.30 1021.54 1021.75 1021.93 1022.10 1022.26 1022.41 1022.56 1022.70 1022.83 1022.96 1023.08 1023.21 1023.36 1023.51 1023.67 1023.84 1024.00 1024.15 1024.27
1017.36 1017.56 1017.73 1017.88 1018.03 1018.18 1018.35 1018.54 1018.73 1018.92 1019.09 1019.22 1019.31 1019.38 1019.43 1019.48 1019.56 1019.66 1019.80 1019.99 1020.21 1020.45 1020.71 1020.98 1021.25 1021.51 1021.75 1021.98 1022.19 1022.37 1022.52 1022.65 1022.76 1022.86 1022.96 1023.07 1023.21 1023.36 1023.54 1023.71 1023.88 1024.04 1024.17
1017.21 1017.43 1017.63 1017.82 1018.00 1018.19 1018.38 1018.59 1018.80 1019.02 1019.21 1019.39 1019.53 1019.63 1019.69 1019.73 1019.76 1019.78 1019.83 1019.90 1020.00 1020.15 1020.35 1020.59 1020.87 1021.16 1021.46 1021.74 1022.00 1022.22 1022.39 1022.52 1022.62 1022.71 1022.80 1022.90 1023.03 1023.18 1023.35 1023.53 1023.69 1023.84 1023.95
1016.99 1017.22 1017.46 1017.70 1017.92 1018.15 1018.37 1018.60 1018.83 1019.06 1019.28 1019.48 1019.65 1019.78 1019.86 1019.90 1019.89 1019.85 1019.80 1019.76 1019.76 1019.82 1019.94 1020.13 1020.38 1020.69 1021.02 1021.35 1021.65 1021.91 1022.12 1022.28 1022.40 1022.50 1022.59 1022.70 1022.82 1022.97 1023.12 1023.28 1023.43 1023.55 1023.65
1016.74 1016.98 1017.25 1017.53 1017.79 1018.05 1018.30 1018.55 1018.79 1019.02 1019.26 1019.47 1019.66 1019.81 1019.90 1019.94 1019.90 1019.82 1019.70 1019.57 1019.48 1019.43 1019.47 1019.59 1019.80 1020.09 1020.42 1020.77 1021.11 1021.42 1021.68 1021.89 1022.05 1022.18 1022.31 1022.43 1022.57 1022.71 1022.86 1022.99 1023.12 1023.22 1023.29
1016.50 1016.75 1017.03 1017.33 1017.63 1017.92 1018.19 1018.43 1018.67 1018.90 1019.13 1019.35 1019.54 1019.70 1019.81 1019.85 1019.81 1019.70 1019.53 1019.34 1019.16 1019.02 1018.96 1019.00 1019.14 1019.38 1019.69 1020.04 1020.41 1020.75 1021.06 1021.33 1021.56 1021.75 1021.92 1022.09 1022.24 1022.40 1022.54 1022.67 1022.78 1022.85 1022.91
1016.30 1016.54 1016.82 1017.14 1017.45 1017.75 1018.02 1018.26 1018.49 1018.70 1018.91 1019.11 1019.31 1019.48 1019.61 1019.66 1019.63 1019.52 1019.33 1019.10 1018.85 1018.63 1018.49 1018.43 1018.49 1018.65 1018.90 1019.23 1019.59 1019.95 1020.31 1020.63 1020.93 1021.19 1021.43 1021.65 1021.84 1022.03 1022.18 1022.32 1022.42 1022.50 1022.55
1016.15 1016.35 1016.62 1016.93 1017.24 1017.53 1017.79 1018.02 1018.22 1018.41 1018.60 1018.79 1018.99 1019.17 1019.31 1019.39 1019.40 1019.30 1019.12 1018.88 1018.60 1018.33 1018.10 1017.95 1017.91 1017.99 1018.16 1018.42 1018.75 1019.11 1019.48 1019.85 1020.20 1020.53 1020.84 1021.11 1021.37 1021.59 1021.78 1021.94 1022.07 1022.17 1022.25
1016.00 1016.17 1016.40 1016.68 1016.98 1017.25 1017.49 1017.70 1017.88 1018.04 1018.20 1018.38 1018.58 1018.77 1018.94 1019.07 1019.12 1019.07 1018.93 1018.71 1018.43 1018.13 1017.86 1017.64 1017.51 1017.48 1017.56 1017.74 1018.01 1018.33 1018.69 1019.07 1019.45 1019.83 1020.19 1020.53 1020.84 1021.11 1021.35 1021.56 1021.73 1021.88 1022.02
1015.82 1015.95 1016.14 1016.39 1016.64 1016.89 1017.10 1017.28 1017.43 1017.57 1017.71 1017.88 1018.07 1018.28 1018.49 1018.67 1018.78 1018.81 1018.74 1018.58 1018.34 1018.06 1017.77 1017.51 1017.31 1017.19 1017.18 1017.26 1017.44 1017.70 1018.02 1018.38 1018.76 1019.16 1019.56 1019.94 1020.30 1020.63 1020.93 1021.20 1021.44 1021.66 1021.87
1015.59 1015.67 1015.82 1016.02 1016.24 1016.44 1016.62 1016.77 1016.89 1017.00 1017.12 1017.28 1017.47 1017.69 1017.94 1018.17 1018.36 1018.48 1018.51 1018.44 1018.29 1018.06 1017.80 1017.54 1017.30 1017.13 1017.03 1017.03 1017.12 1017.29 1017.54 1017.85 1018.21 1018.60 1019.01 1019.42 1019.82 1020.21 1020.57 1020.91 1021.22 1021.52 1021.81
1015.31 1015.35 1015.46 1015.61 1015.78 1015.94 1016.08 1016.18 1016.27 1016.34 1016.44 1016.57 1016.75 1016.98 1017.26 1017.54 1017.81 1018.02 1018.17 1018.22 1018.18 1018.05 1017.87 1017.65 1017.42 1017.23 1017.09 1017.02 1017.03 1017.12 1017.30 1017.55 1017.87 1018.24 1018.64 1019.06 1019.50 1019.92 1020.34 1020.74 1021.12 1021.49 1021.86
1015.05 1015.06 1015.13 1015.23 1015.34 1015.45 1015.53 1015.58 1015.62 1015.65 1015.70 1015.79 1015.95 1016.17 1016.45 1016.77 1017.10 1017.40 1017.66 1017.84 1017.93 1017.94 1017.87 1017.74 1017.58 1017.41 1017.26 1017.16 1017.13 1017.17 1017.28 1017.49 1017.76 1018.11 1018.50 1018.93 1019.38 1019.84 1020.30 1020.75 1021.19 1021.62 1022.03
1014.87 1014.87 1014.90 1014.95 1015.02 1015.06 1015.08 1015.07 1015.03 1015.00 1014.98 1015.02 1015.12 1015.30 1015.56 1015.88 1016.24 1016.62 1016.97 1017.27 1017.50 1017.65 1017.71 1017.70 1017.64 1017.55 1017.45 1017.37 1017.33 1017.36 1017.46 1017.64 1017.90 1018.24 1018.63 1019.07 1019.54 1020.03 1020.51 1021.00 1021.47 1021.92 1022.36
1014.89 1014.88 1014.89 1014.90 1014.90 1014.88 1014.82 1014.73 1014.62 1014.49 1014.39 1014.34 1014.36 1014.47 1014.67 1014.96 1015.32 1015.73 1016.14 1016.53 1016.87 1017.15 1017.35 1017.48 1017.54 1017.56 1017.55 1017.54 1017.56 1017.63 1017.76 1017.96 1018.24 1018.60 1019.02 1019.48 1019.98 1020.49 1020.99 1021.48 1021.96 1022.41 1022.83
1015.14 1015.14 1015.13 1015.10 1015.05 1014.96 1014.83 1014.65 1014.44 1014.22 1014.02 1013.87 1013.79 1013.81 1013.93 1014.15 1014.47 1014.86 1015.28 1015.72 1016.14 1016.51 1016.83 1017.08 1017.27 1017.41 1017.52 1017.62 1017.74 1017.89 1018.10 1018.38 1018.72 1019.14 1019.61 1020.11 1020.64 1021.17 1021.68 1022.17 1022.62 1023.04 1023.42
1015.62 1015.63 1015.62 1015.56 1015.47 1015.32 1015.11 1014.86 1014.56 1014.25 1013.95 1013.70 1013.52 1013.43 1013.45 1013.59 1013.83 1014.16 1014.56 1014.99 1015.43 1015.86 1016.25 1016.59 1016.88 1017.14 1017.37 1017.59 1017.83 1018.11 1018.43 1018.82 1019.26 1019.76 1020.30 1020.87 1021.43 1021.98 1022.49 1022.96 1023.37 1023.73 1024.05
1016.25 1016.28 1016.27 1016.20 1016.08 1015.88 1015.63 1015.31 1014.95 1014.58 1014.20 1013.87 1013.60 1013.42 1013.35 1013.39 1013.54 1013.79 1014.12 1014.50 1014.91 1015.33 1015.74 1016.13 1016.49 1016.83 1017.16 1017.50 1017.87 1018.27 1018.72 1019.23 1019.79 1020.39 1021.01 1021.63 1022.23 1022.79 1023.30 1023.73 1024.09 1024.38 1024.62
1016.90 1016.96 1016.96 1016.90 1016.76 1016.56 1016.28 1015.94 1015.56 1015.15 1014.74 1014.37 1014.05 1013.81 1013.67 1013.63 1013.69 1013.85 1014.09 1014.38 1014.72 1015.08 1015.46 1015.83 1016.21 1016.60 1017.00 1017.42 1017.89 1018.40 1018.97 1019.59 1020.25 1020.94 1021.63 1022.30 1022.93 1023.49 1023.97 1024.36 1024.66 1024.88 1025.04
1017.44 1017.53 1017.56 1017.52 1017.41 1017.22 1016.96 1016.64 1016.27 1015.88 1015.49 1015.12 1014.81 1014.55 1014.38 1014.29 1014.28 1014.36 1014.50 1014.69 1014.93 1015.21 1015.50 1015.83 1016.17 1016.55 1016.97 1017.44 1017.97 1018.55 1019.20 1019.89 1020.62 1021.37 1022.10 1022.79 1023.42 1023.96 1024.41 1024.75 1024.99 1025.14 1025.23
1017.79 1017.92 1017.99 1017.99 1017.91 1017.77 1017.56 1017.30 1016.99 1016.66 1016.34 1016.04 1015.77 1015.55 1015.39 1015.29 1015.25 1015.26 1015.32 1015.42 1015.55 1015.72 1015.92 1016.15 1016.43 1016.77 1017.16 1017.62 1018.16 1018.77 1019.44 1020.16 1020.91 1021.66 1022.39 1023.06 1023.66 1024.16 1024.55 1024.84 1025.02 1025.12 1025.15
1017.93 1018.09 1018.20 1018.26 1018.25 1018.17 1018.04 1017.86 1017.65 1017.42 1017.20 1016.99 1016.81 1016.67 1016.56 1016.49 1016.45 1016.43 1016.44 1016.46 1016.50 1016.57 1016.66 1016.81 1017.00 1017.26 1017.59 1018.01 1018.51 1019.09 1019.73 1020.42 1021.13 1021.84 1022.51 1023.13 1023.66 1024.09 1024.42 1024.65 1024.78 1024.83 1024.83
1017.91 1018.11 1018.27 1018.39 1018.45 1018.45 1018.41 1018.33 1018.22 1018.10 1017.99 1017.90 1017.82 1017.77 1017.74 1017.71 1017.70 1017.68 1017.66 1017.64 1017.62 1017.61 1017.62 1017.68 1017.79 1017.97 1018.23 1018.58 1019.01 1019.51 1020.08 1020.70 1021.32 1021.94 1022.52 1023.04 1023.48 1023.83 1024.08 1024.25 1024.34 1024.37 1024.36
1017.86 1018.10 1018.31 1018.48 1018.61 1018.69 1018.73 1018.74 1018.72 1018.70 1018.69 1018.69 1018.71 1018.74 1018.78 1018.81 1018.84 1018.84 1018.82 1018.78 1018.73 1018.68 1018.64 1018.64 1018.68 1018.80 1018.99 1019.26 1019.61 1020.02 1020.50 1021.00 1021.51 1022.01 1022.47 1022.87 1023.20 1023.46 1023.65 1023.76 1023.82 1023.84 1023.83
Thickness
5755 5754 5753 5752 5752 5751 5750 5750 5749 5748 5748 5747 5747 5747 5746 5745 5743 5740 5735 5733 5731 5729 5728 5726 5725 5724 5722 5721 5720 5720 5718 5717 5716 5715 5714 5713 5712 5711 5710 5709 5708 5707 5706
5755 5754 5753 5753 5753 5752 5751 5750 5749 5748 5748 5747 5747 5747 5746 5745 5743 5740 5736 5733 5731 5730 5728 5727 5726 5724 5723 5722 5721 5719 5718 5717 5716 5714 5713 5712 5711 5710 5709 5708 5707 5706 5705
5755 5754 5753 5753 5753 5752 5751 5750 5750 5749 5748 5748 5747 5747 5746 5745 5743 5742 5738 5735 5732 5730 5729 5728 5726 5725 5724 5722 5721 5720 5719 5717 5716 5714 5713 5712 5711 5709 5708 5707 5706 5705 5704
5755 5754 5754 5754 5753 5752 5752 5751 5750 5749 5748 5748 5747 5748 5747 5746 5745 5743 5741 5738 5736 5733 5731 5729 5727 5726 5724 5723 5722 5720 5719 5718 5716 5714 5713 5712 5710 5709 5708 5707 5706 5705 5704
5756 5755 5754 5754 5753 5753 5753 5752 5750 5749 5747 5747 5747 5747 5747 5747 5746 5745 5744 5742 5739 5737 5734 5731 5729 5728 5726 5724 5723 5721 5720 5718 5716 5715 5714 5712 5711 5709 5708 5707 5706 5704 5703
5756 5756 5755 5754 5754 5753 5752 5751 5749 5749 5748 5747 5749 5748 5748 5748 5748 5746 5745 5744 5742 5740 5738 5734 5731 5729 5727 5726 5724 5722 5721 5719 5717 5716 5714 5713 5711 5710 5708 5707 5705 5704 5702
5756 5756 5756 5754 5754 5753 5752 5751 5749 5747 5747 5749 5745 5742 5745 5748 5748 5748 5747 5746 5745 5743 5741 5737 5734 5732 5730 5728 5726 5724 5722 5720 5719 5717 5715 5713 5711 5710 5708 5707 5705 5703 5702
5757 5756 5755 5754 5754 5753 5752 5751 5749 5746 5747 5749 5743 5737 5733 5737 5743 5749 5748 5746 5746 5744 5743 5741 5738 5736 5733 5731 5728 5726 5723 5721 5720 5718 5715 5714 5712 5710 5708 5707 5705 5703 5701
5757 5757 5756 5755 5755 5754 5751 5750 5750 5746 5743 5746 5748 5740 5731 5727 5734 5743 5747 5748 5747 5745 5745 5744 5741 5738 5735 5733 5730 5726 5724 5722 5720 5718 5715 5714 5712 5710 5708 5706 5704 5702 5700
5758 5758 5757 5756 5755 5754 5752 5751 5751 5749 5745 5742 5746 5747 5745 5741 5732 5731 5739 5744 5746 5745 5744 5744 5742 5739 5736 5734 5731 5728 5725 5722 5719 5717 5715 5713 5711 5709 5706 5704 5702 5700 5698
5758 5758 5757 5756 5754 5754 5753 5752 5751 5749 5747 5745 5744 5744 5743 5743 5741 5732 5728 5735 5740 5742 5742 5741 5740 5738 5735 5732 5729 5727 5724 5721 5718 5716 5713 5711 5709 5707 5704 5702 5700 5698 5696
5758 5758 5758 5757 5755 5754 5753 5752 5751 5749 5747 5746 5745 5744 5741 5738 5737 5735 5730 5730 5731 5736 5738 5738 5737 5735 5733 5730 5727 5725 5722 5719 5716 5713 5710 5708 5706 5703 5701 5698 5696 5694 5693
5757 5758 5759 5757 5756 5755 5754 5752 5750 5748 5747 5746 5744 5743 5743 5742 5741 5738 5733 5730 5729 5731 5733 5733 5733 5732 5729 5727 5724 5722 5719 5716 5712 5710 5707 5704 5702 5699 5696 5694 5691 5690 5688
5759 5759 5759 5757 5756 5754 5753 5752 5750 5748 5747 5745 5744 5743 5742 5742 5742 5739 5734 5729 5724 5725 5725 5725 5727 5725 5723 5721 5719 5717 5713 5711 5708 5705 5702 5699 5696 5693 5690 5688 5685 5683 5681
5759 5759 5758 5756 5755 5753 5752 5750 5748 5747 5746 5744 5743 5742 5740 5740 5740 5739 5737 5733 5724 5717 5715 5718 5718 5718 5717 5714 5712 5709 5706 5704 5701 5698 5695 5692 5689 5686 5683 5680 5677 5675 5672
5758 5757 5756 5754 5753 5751 5750 5748 5746 5745 5743 5742 5741 5739 5737 5737 5736 5735 5734 5731 5728 5721 5713 5713 5712 5712 5711 5708 5704 5701 5699 5696 5693 5690 5687 5683 5680 5678 5675 5672 5669 5666 5664
5755 5754 5753 5751 5750 5748 5747 5744 5743 5741 5739 5738 5737 5735 5733 5732 5730 5729 5728 5726 5723 5719 5711 5708 5706 5705 5703 5700 5697 5694 5691 5688 5684 5681 5678 5675 5672 5668 5665 5662 5659 5656 5654
5753 5751 5749 5747 5746 5744 5743 5740 5737 5736 5734 5732 5731 5729 5727 5727 5724 5723 5721 5720 5718 5716 5710 5703 5699 5697 5695 5693 5690 5687 5683 5679 5675 5671 5668 5666 5662 5659 5655 5651 5648 5645 5643
5749 5747 5745 5743 5741 5739 5737 5735 5733 5731 5729 5727 5725 5723 5721 5719 5717 5716 5715 5713 5711 5710 5706 5700 5694 5691 5687 5685 5681 5678 5675 5671 5667 5662 5658 5655 5652 5648 5644 5640 5637 5634 5631
5744 5742 5740 5738 5735 5733 5731 5729 5727 5725 5723 5722 5720 5717 5715 5713 5711 5710 5708 5705 5704 5701 5698 5694 5688 5684 5680 5677 5673 5669 5664 5661 5658 5655 5650 5645 5641 5638 5633 5629 5625 5622 5619
5739 5737 5734 5732 5729 5727 5724 5722 5721 5719 5717 5714 5712 5710 5707 5705 5704 5702 5700 5698 5696 5693 5690 5686 5680 5675 5671 5667 5664 5661 5656 5652 5647 5644 5640 5635 5631 5627 5622 5618 5614 5610 5607
5734 5731 5728 5725 5722 5720 5717 5716 5714 5712 5709 5706 5703 5701 5699 5696 5694 5692 5690 5688 5686 5683 5680 5677 5672 5666 5662 5658 5655 5652 5647 5642 5636 5633 5629 5625 5621 5616 5611 5606 5602 5599 5595
5728 5725 5722 5719 5714 5710 5709 5708 5707 5704 5701 5698 5695 5692 5691 5688 5685 5683 5680 5678 5675 5672 5670 5666 5661 5656 5652 5649 5645 5641 5636 5632 5627 5623 5619 5614 5611 5606 5601 5596 5592 5588 5584
5723 5719 5715 5712 5708 5703 5702 5700 5698 5696 5692 5689 5685 5683 5679 5677 5675 5673 5670 5666 5662 5659 5658 5655 5650 5646 5643 5639 5636 5632 5627 5623 5618 5613 5610 5604 5600 5595 5591 5586 5582 5577 5573
5717 5713 5709 5705 5701 5696 5694 5692 5691 5687 5683 5679 5675 5672 5670 5666 5664 5662 5660 5655 5650 5646 5643 5641 5638 5634 5631 5628 5624 5621 5616 5612 5606 5601 5597 5593 5589 5585 5580 5575 5571 5567 5563
5709 5705 5701 5697 5694 5689 5685 5684 5683 5680 5675 5670 5666 5662 5659 5656 5653 5651 5648 5644 5639 5636 5633 5629 5625 5622 5618 5615 5612 5608 5605 5600 5596 5590 5585 5582 5578 5574 5569 5566 5562 5557 5552